Probability
58 58 61 87 77 6 0 0 0 0 3 3 10 6 0 0 0 23 58 13 16 48 87 94 100 100 100 100 100 100 100 100 100 100 100 100 94 94 94 94 94 87 84 94 87 87 87 90 94
19 35 71 58 19 0 0 0 0 3 10 13 13 10 6 13 52 71 61 39 19 55 87 94 100 100 100 100 100 100 100 100 100 100 100 100 100 100 97 97 97 87 90 87 87 97 87 94 87
16 35 48 16 0 0 0 0 3 10 13 16 23 19 23 58 74 90 77 45 32 65 94 100 100 100 100 100 100 100 100 100 100 100 100 100 97 97 97 97 94 84 90 87 87 84 87 81 87
19 29 39 10 0 0 0 0 3 10 16 16 26 26 55 77 84 90 77 58 39 84 94 100 100 100 100 100 100 100 100 100 100 100 100 97 97 97 97 90 90 87 84 87 84 90 87 94 90
13 13 6 3 0 0 0 0 6 3 6 35 29 16 61 77 90 90 81 55 68 84 90 100 100 100 100 100 100 100 100 100 100 100 97 94 94 90 90 87 87 87 84 81 81 84 84 90 90
0 6 6 0 0 0 0 0 6 0 10 45 45 35 71 94 97 97 90 68 71 81 94 100 100 100 100 100 100 100 100 100 100 100 94 94 94 90 87 87 84 77 74 74 77 74 74 84 90
0 0 0 0 0 0 0 0 0 3 13 29 48 48 81 94 97 97 81 68 71 81 94 100 100 100 100 100 100 100 100 100 100 94 94 94 90 81 84 84 81 74 71 65 68 74 77 90 94
0 0 0 0 0 0 0 0 3 6 10 55 74 52 68 94 94 90 81 77 81 81 84 90 90 94 100 100 100 100 100 100 97 94 94 84 84 84 84 87 84 74 65 65 68 77 71 90 87
0 0 0 0 0 0 0 0 13 29 42 68 74 81 84 84 87 90 84 84 87 84 87 90 90 94 97 97 97 100 97 97 97 94 90 90 81 77 81 74 68 68 65 68 71 77 74 74 84
0 0 0 0 0 0 3 3 10 35 45 61 81 84 77 77 90 87 81 81 84 87 87 90 90 90 94 90 94 100 94 94 94 90 84 81 81 61 58 58 61 61 58 61 61 58 65 61 58
0 0 0 0 0 0 0 3 10 13 19 39 71 81 77 74 87 90 87 77 77 74 81 87 90 94 90 94 94 94 94 94 87 87 84 84 65 55 45 61 65 68 52 52 58 48 39 42 48
0 0 0 0 0 0 0 0 0 13 19 45 58 74 77 77 84 81 81 77 71 74 77 87 84 94 90 90 94 94 90 90 87 87 74 71 65 52 45 55 45 52 55 55 39 48 39 42 42
0 0 0 0 0 0 0 3 3 19 39 42 61 68 71 71 81 77 74 71 68 71 71 81 84 87 87 97 94 87 90 81 84 87 71 71 55 48 39 42 48 29 39 45 39 26 32 39 45
0 0 0 0 0 0 0 3 6 23 42 52 61 65 71 68 71 74 71 71 71 68 74 84 87 87 90 90 94 90 90 90 84 65 61 58 52 48 39 35 35 29 26 23 29 23 29 29 26
0 0 0 0 0 0 0 3 10 32 45 52 58 61 68 68 71 71 71 74 65 68 74 77 87 84 87 87 90 94 90 84 71 68 58 52 42 45 35 35 35 23 23 16 23 23 23 26 16
0 0 0 0 0 0 0 0 16 32 42 48 52 58 65 65 65 71 68 65 65 65 77 74 61 84 87 87 94 90 84 71 65 61 52 42 32 35 39 29 26 23 19 19 13 10 6 6 13
0 0 0 0 0 0 0 3 16 35 35 45 52 58 68 68 68 65 58 55 52 58 68 81 81 87 87 84 84 87 77 65 61 48 45 42 29 23 23 16 16 13 16 6 3 6 6 6 6
0 0 0 0 0 0 0 0 10 32 32 45 58 58 61 65 58 58 58 55 55 58 68 77 84 87 90 84 87 81 65 55 48 45 26 32 23 19 10 10 13 3 6 6 3 3 13 3 3
0 0 0 0 0 0 0 3 13 29 42 48 65 52 52 52 65 61 58 52 52 52 55 61 77 90 90 81 68 65 68 58 45 32 26 26 13 13 10 3 10 10 6 6 0 3 3 0 0
0 0 0 0 0 0 0 0 13 29 45 48 55 55 45 52 58 65 58 52 52 55 58 68 77 81 87 84 81 81 71 52 39 26 29 16 16 6 3 3 3 6 10 13 6 6 6 0 0
0 0 0 0 0 0 0 0 16 23 32 35 39 48 48 48 55 61 58 52 48 52 48 52 71 71 81 77 81 68 68 35 29 26 23 16 10 6 3 6 3 3 3 6 10 6 6 3 0
0 0 0 0 0 0 0 0 10 6 13 23 26 32 39 48 55 61 55 52 58 45 48 58 68 74 74 74 61 52 48 35 19 26 19 16 10 10 3 3 3 3 0 3 3 3 0 3 3
0 0 0 0 0 0 0 0 0 10 6 10 29 23 45 39 42 48 45 48 52 42 48 58 65 74 68 58 77 65 42 32 26 23 29 16 3 6 6 6 3 3 3 3 3 3 0 3 0
0 0 0 0 0 0 0 0 0 0 0 3 23 35 39 35 35 42 42 52 48 45 48 48 65 71 74 68 65 68 58 48 32 32 26 16 3 3 6 6 6 6 0 3 3 0 0 3 3
0 0 0 0 0 0 0 0 0 0 0 6 16 35 35 39 35 35 42 42 48 48 45 52 58 65 65 58 55 52 61 65 61 45 26 16 3 3 16 6 10 6 10 3 3 3 0 0 0
0 0 0 0 0 0 0 0 3 3 3 10 16 23 39 32 29 39 32 39 45 48 45 45 61 65 65 61 55 65 68 58 42 48 19 29 6 3 10 23 19 10 13 0 6 0 0 0 0
0 0 0 0 0 0 0 6 10 6 10 13 10 19 35 32 29 32 35 39 35 35 42 48 58 55 55 55 65 65 65 55 48 45 39 26 32 10 13 19 23 19 19 10 10 3 3 3 0
0 0 0 0 0 0 0 0 3 16 16 19 29 23 39 42 29 26 26 32 32 32 45 45 52 61 58 58 61 52 61 58 61 48 35 35 35 16 16 19 19 23 19 19 23 10 10 6 3
3 0 0 0 0 0 0 0 6 23 29 26 32 26 42 32 35 26 29 32 29 32 42 52 55 52 52 55 61 61 58 55 52 52 42 48 55 45 45 42 29 23 23 26 35 19 10 10 10
3 0 6 0 0 0 0 3 3 16 13 23 23 32 32 35 35 29 32 32 32 35 39 45 55 45 48 52 55 61 61 65 61 48 52 52 48 55 48 48 45 29 26 39 42 29 19 23 19
Height
5896 5895 5895 5894 5894 5894 5893 5892 5890 5889 5887 5886 5885 5884 5883 5883 5883 5885 5883 5881 5881 5881 5882 5883 5884 5886 5887 5888 5890 5890 5891 5891 5891 5892 5892 5893 5893 5894 5894 5894 5894 5894 5894 5894 5894 5893 5893 5893 5893
5896 5895 5895 5895 5894 5895 5893 5891 5890 5888 5887 5885 5884 5883 5882 5881 5880 5880 5879 5879 5879 5879 5880 5881 5882 5884 5886 5887 5888 5889 5890 5890 5891 5891 5892 5892 5893 5893 5894 5894 5894 5894 5893 5893 5893 5893 5892 5892 5892
5896 5895 5895 5895 5894 5894 5893 5891 5889 5887 5885 5884 5882 5881 5880 5880 5879 5878 5877 5877 5877 5877 5878 5879 5880 5882 5884 5885 5887 5888 5889 5890 5890 5891 5891 5892 5892 5893 5893 5893 5893 5893 5893 5893 5892 5892 5892 5891 5891
5896 5896 5895 5895 5894 5893 5892 5890 5887 5886 5884 5882 5881 5880 5879 5878 5877 5876 5875 5874 5874 5875 5875 5876 5878 5880 5881 5883 5885 5887 5888 5889 5889 5890 5891 5891 5892 5892 5892 5893 5892 5892 5892 5892 5891 5891 5891 5891 5891
5896 5895 5895 5895 5894 5892 5891 5889 5887 5885 5883 5881 5880 5878 5877 5875 5874 5873 5872 5872 5872 5872 5873 5874 5875 5877 5880 5881 5883 5885 5886 5888 5889 5889 5890 5891 5891 5891 5892 5892 5891 5891 5891 5891 5890 5890 5890 5890 5890
5896 5895 5896 5896 5894 5892 5890 5888 5886 5884 5882 5880 5879 5877 5875 5873 5872 5871 5870 5869 5869 5869 5870 5871 5873 5875 5877 5879 5881 5883 5885 5886 5887 5888 5889 5890 5890 5891 5891 5891 5890 5890 5890 5890 5890 5889 5889 5889 5889
5896 5895 5895 5894 5893 5891 5890 5887 5885 5883 5881 5879 5877 5875 5873 5871 5870 5869 5867 5867 5866 5866 5867 5868 5870 5873 5875 5877 5879 5881 5883 5885 5886 5887 5888 5889 5889 5890 5890 5890 5889 5889 5889 5889 5889 5888 5888 5888 5888
5894 5895 5894 5893 5892 5891 5889 5887 5885 5882 5880 5878 5875 5873 5871 5870 5868 5866 5865 5864 5863 5864 5865 5867 5868 5870 5873 5875 5877 5879 5881 5883 5884 5885 5886 5887 5888 5888 5888 5888 5888 5888 5888 5888 5887 5887 5887 5887 5887
5893 5895 5894 5893 5891 5890 5888 5886 5884 5881 5879 5876 5874 5872 5870 5867 5866 5864 5863 5863 5862 5862 5863 5864 5866 5868 5870 5873 5875 5877 5879 5881 5883 5884 5885 5886 5887 5887 5887 5887 5887 5887 5887 5887 5886 5886 5886 5886 5886
5893 5893 5893 5891 5890 5888 5886 5885 5882 5880 5877 5875 5872 5870 5867 5865 5863 5862 5860 5860 5860 5860 5861 5862 5864 5866 5868 5871 5873 5875 5877 5879 5881 5882 5883 5884 5885 5885 5885 5886 5886 5886 5886 5886 5886 5885 5885 5885 5885
5891 5891 5890 5889 5888 5887 5885 5883 5881 5878 5876 5873 5870 5867 5865 5863 5861 5859 5858 5856 5856 5857 5858 5860 5862 5864 5866 5869 5871 5873 5875 5877 5879 5880 5882 5883 5883 5884 5884 5884 5884 5885 5885 5885 5884 5884 5884 5884 5884
5890 5889 5888 5887 5887 5885 5884 5882 5879 5877 5874 5871 5868 5865 5863 5860 5858 5856 5854 5853 5854 5854 5856 5857 5860 5862 5864 5867 5869 5871 5873 5876 5877 5879 5880 5881 5882 5883 5883 5884 5884 5884 5884 5884 5883 5883 5883 5883 5883
5889 5888 5887 5886 5885 5884 5882 5880 5878 5875 5872 5869 5866 5863 5860 5857 5855 5852 5851 5850 5851 5852 5853 5855 5857 5859 5862 5864 5867 5870 5872 5874 5876 5878 5879 5880 5881 5882 5882 5883 5883 5883 5883 5883 5883 5882 5882 5882 5882
5887 5886 5885 5884 5883 5882 5881 5878 5876 5873 5870 5867 5864 5861 5858 5855 5852 5849 5848 5847 5848 5850 5851 5853 5855 5857 5860 5863 5865 5868 5870 5872 5875 5876 5878 5879 5880 5880 5881 5882 5882 5882 5882 5882 5882 5882 5882 5881 5881
5885 5885 5884 5883 5882 5881 5879 5877 5874 5871 5868 5865 5862 5859 5856 5853 5850 5847 5845 5845 5847 5848 5849 5851 5853 5855 5858 5861 5864 5866 5869 5871 5873 5875 5876 5877 5878 5879 5880 5881 5882 5882 5882 5882 5882 5882 5881 5881 5881
5884 5884 5884 5882 5880 5879 5879 5877 5873 5870 5866 5863 5859 5856 5854 5851 5849 5846 5844 5844 5845 5845 5847 5849 5851 5854 5856 5859 5862 5864 5867 5869 5871 5873 5875 5876 5877 5878 5879 5880 5881 5881 5882 5882 5882 5881 5881 5881 5881
5882 5882 5882 5881 5879 5877 5876 5874 5871 5868 5864 5861 5858 5855 5852 5850 5848 5846 5844 5843 5843 5844 5845 5847 5850 5852 5855 5857 5860 5863 5865 5867 5870 5872 5873 5875 5876 5877 5879 5880 5880 5881 5881 5882 5881 5881 5881 5881 5881
5880 5879 5879 5878 5877 5876 5874 5872 5869 5866 5863 5859 5856 5853 5851 5849 5847 5845 5844 5843 5843 5843 5844 5846 5848 5851 5853 5856 5859 5861 5863 5866 5868 5870 5872 5874 5875 5876 5878 5879 5880 5881 5881 5882 5881 5881 5881 5881 5881
5875 5876 5876 5875 5874 5873 5872 5870 5867 5864 5861 5858 5855 5852 5850 5848 5846 5845 5844 5843 5842 5842 5843 5845 5846 5849 5851 5854 5857 5859 5861 5864 5867 5869 5871 5872 5874 5875 5877 5878 5879 5880 5881 5881 5882 5882 5881 5881 5882
5872 5873 5873 5873 5871 5871 5869 5868 5865 5862 5860 5857 5854 5851 5849 5847 5845 5844 5843 5842 5842 5841 5841 5842 5844 5847 5850 5852 5855 5857 5860 5862 5865 5867 5869 5871 5873 5874 5876 5877 5879 5880 5881 5881 5882 5882 5882 5882 5882
5868 5870 5870 5870 5869 5868 5868 5866 5863 5860 5858 5855 5853 5850 5848 5846 5844 5843 5842 5841 5840 5839 5839 5841 5843 5845 5848 5850 5853 5855 5858 5861 5863 5865 5867 5870 5871 5873 5875 5876 5878 5879 5880 5881 5881 5882 5882 5882 5882
5865 5866 5866 5867 5867 5868 5866 5865 5862 5859 5856 5853 5851 5849 5847 5845 5843 5842 5841 5840 5839 5838 5838 5839 5842 5844 5846 5848 5851 5853 5856 5859 5861 5863 5866 5868 5870 5872 5874 5875 5877 5878 5879 5880 5881 5881 5881 5882 5882
5861 5862 5863 5863 5864 5864 5864 5862 5862 5857 5854 5852 5850 5847 5846 5844 5842 5841 5840 5839 5838 5837 5837 5838 5840 5842 5844 5846 5849 5851 5854 5857 5859 5862 5864 5866 5868 5870 5872 5874 5876 5877 5878 5879 5880 5880 5881 5881 5881
5857 5859 5860 5860 5861 5863 5861 5860 5859 5856 5852 5850 5848 5847 5845 5843 5841 5840 5839 5837 5837 5836 5836 5837 5838 5840 5842 5845 5847 5849 5852 5855 5858 5860 5862 5864 5866 5868 5870 5872 5874 5875 5876 5877 5878 5879 5879 5880 5880
5854 5856 5859 5860 5861 5861 5858 5857 5856 5853 5851 5849 5847 5846 5844 5842 5840 5839 5838 5836 5835 5835 5835 5835 5836 5838 5840 5842 5845 5847 5850 5853 5855 5858 5860 5862 5864 5866 5868 5870 5872 5873 5874 5875 5876 5877 5877 5878 5878
5850 5853 5856 5858 5859 5859 5855 5854 5854 5850 5849 5847 5846 5844 5842 5841 5839 5838 5837 5836 5835 5834 5834 5834 5835 5836 5838 5840 5842 5845 5848 5850 5853 5855 5858 5860 5862 5864 5866 5867 5869 5870 5871 5872 5873 5874 5875 5875 5875
5846 5848 5852 5853 5853 5854 5854 5852 5850 5848 5846 5845 5844 5842 5841 5840 5838 5837 5836 5835 5834 5833 5833 5833 5833 5834 5836 5838 5840 5843 5845 5848 5851 5853 5855 5857 5859 5861 5863 5864 5865 5867 5868 5869 5870 5870 5871 5871 5872
5842 5844 5846 5848 5850 5851 5851 5850 5848 5845 5844 5843 5842 5841 5839 5838 5837 5836 5835 5834 5833 5832 5832 5832 5832 5833 5834 5836 5838 5840 5843 5845 5847 5849 5852 5854 5856 5857 5859 5860 5862 5863 5864 5865 5866 5866 5867 5867 5867
5838 5840 5841 5844 5846 5847 5849 5850 5845 5843 5842 5840 5839 5838 5838 5837 5836 5835 5834 5833 5833 5832 5831 5831 5831 5831 5832 5833 5836 5838 5840 5842 5844 5846 5848 5850 5852 5853 5855 5856 5857 5859 5860 5860 5861 5861 5862 5862 5862
5834 5836 5838 5840 5841 5841 5843 5847 5841 5840 5839 5838 5837 5836 5835 5835 5834 5833 5832 5832 5831 5831 5830 5830 5830 5830 5830 5831 5833 5836 5838 5840 5841 5843 5845 5846 5848 5849 5850 5851 5852 5853 5854 5855 5855 5856 5856 5856 5856
Wind_Speed
10 10 9 9 9 9 8 8 8 7 6 5 4 3 2 2 3 4 6 8 9 11 11 13 14 13 13 12 11 10 9 8 7 6 6 5 4 3 3 3 3 3 3 3 4 4 4 4 4
10 9 9 9 9 8 9 9 9 9 7 6 5 4 3 4 4 5 6 8 10 11 13 14 14 14 14 13 12 11 10 8 7 6 5 4 3 3 2 3 3 3 2 3 3 3 3 3 3
10 9 9 9 9 7 8 10 10 9 8 7 6 5 4 5 5 6 7 9 11 12 13 15 16 16 15 14 13 12 11 9 8 6 5 4 3 2 2 2 2 2 2 2 2 2 2 2 2
9 9 9 9 8 8 9 9 9 9 8 7 6 6 5 6 6 6 7 8 11 13 13 15 17 17 16 15 14 13 12 10 9 7 5 4 3 2 1 1 2 2 2 1 1 1 1 1 2
9 9 9 9 8 9 9 9 9 9 8 8 8 8 7 7 7 7 7 8 10 13 13 15 17 17 17 16 15 14 13 11 9 7 6 4 3 2 1 1 1 1 1 1 1 1 1 1 2
9 9 8 6 8 10 9 9 9 9 10 10 9 9 9 9 9 8 7 8 10 13 15 15 17 18 17 17 16 15 13 12 10 8 6 5 3 2 1 0 1 1 1 1 1 0 1 1 2
9 8 8 7 9 10 10 10 10 10 10 11 11 11 10 10 10 9 8 8 10 13 16 17 17 17 18 17 16 16 14 13 10 8 7 5 4 3 1 1 1 1 1 1 1 1 1 2 2
9 8 8 8 9 10 10 10 10 11 11 12 12 12 11 11 11 10 9 9 10 12 15 17 17 18 18 18 17 16 15 13 11 9 7 6 4 3 2 2 2 2 1 1 2 1 1 2 2
8 7 6 7 8 9 10 10 11 12 13 13 13 12 12 12 11 10 10 10 10 12 14 16 17 18 19 18 17 16 15 14 12 10 8 6 5 3 2 2 2 2 2 2 2 2 2 2 3
7 6 6 7 8 9 10 11 12 13 14 14 14 13 13 13 11 11 10 9 11 13 14 15 17 19 20 19 17 17 16 14 12 10 8 7 5 4 3 3 2 2 2 2 2 2 2 2 3
7 6 7 8 9 10 10 12 13 14 14 15 15 15 14 13 13 12 10 9 10 12 14 16 17 18 20 19 18 17 16 15 13 11 8 7 5 4 3 3 2 2 2 2 3 3 3 3 3
8 7 8 9 9 10 11 13 14 14 13 14 15 15 15 14 14 12 11 9 10 12 13 16 18 18 19 19 17 16 15 14 13 11 9 7 5 4 3 3 2 2 2 3 3 3 3 3 4
9 9 9 9 10 11 13 13 15 14 14 14 14 14 15 14 14 12 10 9 10 11 13 16 18 19 20 20 18 17 15 15 13 11 9 7 6 4 4 3 2 2 2 2 3 3 3 3 4
9 10 10 11 11 12 14 14 15 15 15 15 15 15 14 14 14 11 9 8 9 11 13 15 17 18 19 19 18 17 15 15 14 11 9 8 7 5 4 3 2 2 2 2 2 2 2 3 3
10 10 11 12 12 13 14 14 16 16 15 15 15 15 14 13 13 11 10 8 9 11 13 15 17 18 19 19 18 17 16 14 13 11 9 8 7 6 5 4 3 2 2 2 1 1 2 2 2
10 9 10 12 12 13 13 13 16 15 16 15 15 14 13 12 12 10 8 7 8 10 13 15 16 17 19 19 18 17 15 15 13 11 10 8 7 6 5 4 3 3 2 2 1 1 1 1 1
10 10 10 12 13 13 14 14 16 16 16 15 15 14 12 11 10 9 7 6 7 10 12 14 16 17 17 18 18 17 16 14 13 11 10 9 7 7 6 5 4 3 2 2 2 1 1 0 0
12 11 11 12 12 13 14 15 16 16 15 15 14 12 11 10 9 8 6 5 6 8 11 13 15 17 17 17 18 17 16 14 13 11 10 10 8 7 7 6 5 4 3 2 2 1 1 1 1
13 12 11 12 12 12 14 15 16 15 15 14 12 11 11 9 9 7 5 5 6 7 10 13 15 16 16 17 17 16 16 15 14 12 11 10 10 9 8 7 6 5 4 3 3 2 1 1 1
13 12 12 12 12 12 13 14 14 14 15 14 12 11 11 10 8 7 7 6 7 7 9 11 14 15 15 17 17 16 16 16 13 12 11 11 11 10 9 8 7 6 4 4 3 2 2 1 1
13 13 12 12 11 12 12 12 14 14 14 13 12 12 11 10 8 7 7 6 6 6 8 11 13 15 15 16 16 16 16 15 14 12 11 12 11 11 10 9 8 7 5 4 4 3 2 2 1
14 14 13 11 10 10 11 10 13 13 13 13 13 11 10 9 8 7 6 5 5 5 6 10 12 13 15 15 15 15 15 15 15 13 13 13 12 12 12 10 9 8 7 6 5 5 4 3 2
16 15 13 12 11 10 11 10 11 12 13 13 12 10 9 9 8 6 6 5 5 5 6 9 11 13 14 14 14 14 15 15 15 14 14 13 13 13 13 12 11 9 8 7 6 6 5 5 4
16 14 13 11 11 11 11 11 9 11 11 11 10 9 10 9 7 6 5 5 5 5 6 8 11 13 14 15 15 14 15 16 15 14 14 13 13 13 14 13 12 11 10 9 8 8 8 7 6
16 14 12 11 11 11 12 11 9 10 10 10 9 9 10 9 7 6 5 5 5 6 6 7 11 14 14 15 15 14 15 16 16 15 14 14 14 14 15 15 13 13 12 11 11 10 10 10 9
17 15 14 12 11 11 13 11 10 10 11 10 9 9 9 9 8 6 5 5 5 5 6 7 10 13 14 15 16 15 16 17 16 16 15 15 15 15 16 16 15 15 14 14 13 13 13 13 12
18 16 15 14 13 11 11 12 11 10 10 10 10 9 9 9 7 6 6 6 6 5 5 7 8 10 13 14 15 16 16 16 17 16 16 16 16 16 16 16 17 16 16 16 16 16 16 16 16
18 17 16 14 13 11 11 11 11 11 10 10 10 10 10 9 8 6 6 6 6 5 5 5 6 8 11 14 15 16 16 16 17 17 17 18 17 17 17 18 18 18 19 18 19 19 19 19 19
19 18 17 16 14 12 11 11 12 11 11 10 10 10 10 9 8 7 6 6 6 5 5 5 6 8 10 13 15 16 16 16 16 16 17 18 18 19 19 19 20 20 21 21 21 21 21 22 22
20 19 19 18 17 15 13 12 13 12 11 11 11 11 11 10 9 7 7 7 7 6 6 6 7 8 10 12 14 16 17 17 17 17 18 19 19 20 21 21 22 22 22 23 23 24 24 25 25
Wind_Direction
19 20 23 25 22 14 359 348 343 339 334 334 326 310 277 275 263 249 239 226 220 212 206 203 197 196 196 200 203 203 196 187 177 165 151 138 123 104 86 70 62 57 55 57 63 69 74 86 96
18 20 22 21 21 9 353 345 341 338 333 329 320 312 294 285 277 260 246 238 226 217 210 207 203 202 202 203 206 206 202 197 187 176 163 146 130 112 86 68 62 57 55 58 64 68 73 87 106
19 20 20 19 17 3 346 341 338 335 336 330 321 310 306 293 281 270 257 243 231 224 218 212 209 208 207 207 207 208 208 205 195 182 174 163 151 128 92 70 63 56 53 59 61 62 73 91 115
15 18 19 19 11 353 343 340 336 338 344 341 334 323 311 305 295 280 266 252 234 226 222 216 213 209 209 210 208 207 208 208 202 192 186 180 174 159 117 74 58 49 39 49 66 73 86 110 137
11 15 20 16 360 348 345 342 340 342 346 345 339 334 324 317 309 296 277 263 240 227 220 216 214 210 209 210 208 207 207 208 206 201 198 194 193 188 164 84 55 42 44 62 73 89 131 149 165
8 14 28 9 349 346 345 346 342 343 342 340 340 337 328 321 313 302 285 267 247 230 220 215 210 206 207 210 208 206 207 209 209 208 206 207 207 219 205 149 343 346 1 18 21 42 174 183 191
4 12 18 2 349 344 342 342 341 343 342 340 338 337 331 325 317 304 289 274 251 234 224 217 210 207 208 209 208 207 208 211 211 211 211 213 216 222 227 268 295 306 312 309 301 285 209 200 204
359 8 13 359 348 339 339 339 342 342 341 337 335 336 331 327 320 310 292 275 248 232 226 220 212 209 210 210 209 208 209 212 215 215 215 216 218 224 241 276 273 278 281 276 275 263 230 218 218
351 1 1 346 339 333 333 336 338 337 337 336 334 330 329 325 318 311 299 275 250 232 224 221 213 212 212 212 211 211 212 214 219 219 218 220 224 232 252 270 263 262 255 254 263 261 245 229 223
344 355 343 337 333 329 328 331 333 334 334 335 333 328 326 325 317 310 302 276 248 234 224 218 212 213 213 212 213 215 216 216 218 219 219 223 230 237 250 261 256 242 235 241 254 257 254 242 237
331 331 329 329 330 328 328 331 333 332 333 334 333 329 326 324 317 308 298 278 249 235 225 215 211 212 212 212 215 219 220 217 218 218 219 224 231 235 241 249 237 223 225 237 247 256 258 249 243
314 318 320 323 326 326 327 332 333 333 331 331 331 328 326 324 319 307 291 272 248 235 222 215 210 212 211 213 217 221 221 218 220 220 222 225 230 234 235 236 232 227 233 244 254 260 260 252 246
307 308 309 314 321 322 324 328 330 331 329 330 330 329 328 326 320 309 289 270 247 232 223 215 212 214 213 214 215 218 220 219 220 220 225 226 228 227 225 224 219 226 230 240 252 257 258 253 248
304 305 304 307 314 318 320 324 326 327 325 327 329 329 330 327 320 309 289 267 240 229 222 215 211 210 210 212 213 213 216 218 221 222 226 226 221 214 214 208 207 210 210 221 237 243 248 251 253
299 302 304 306 312 315 318 323 324 325 325 327 329 330 331 326 323 307 288 260 232 223 220 218 211 210 210 210 210 213 216 219 221 221 223 220 213 207 201 196 195 191 198 211 220 228 237 245 246
294 295 293 300 311 315 318 321 320 324 325 325 327 328 327 326 327 320 295 263 237 223 217 215 214 209 208 208 210 214 218 221 219 215 214 212 206 198 196 193 190 185 186 193 182 179 198 205 232
286 281 281 294 307 315 318 318 319 324 327 323 324 324 324 323 326 325 310 269 245 227 217 214 215 211 211 213 214 217 221 218 214 212 210 209 206 204 201 194 187 182 178 176 158 147 142 148 175
268 272 279 290 302 312 315 315 320 325 329 327 325 326 325 323 322 320 312 278 261 238 223 218 215 216 216 214 214 218 217 211 209 211 210 210 211 208 204 195 188 186 181 173 158 145 131 123 116
271 271 276 286 300 309 312 315 319 323 330 330 329 329 328 325 323 320 309 291 276 250 230 222 215 216 217 214 215 217 213 209 207 208 210 209 209 205 202 196 193 189 186 182 170 153 138 129 109
269 267 271 282 295 306 310 315 317 320 328 329 327 328 329 323 320 313 304 293 282 263 238 224 216 215 217 215 215 212 207 204 204 207 209 207 206 204 201 197 196 194 195 195 187 176 165 158 145
264 260 264 278 296 306 312 321 318 318 324 327 328 327 329 328 325 316 309 302 292 272 236 220 215 216 216 216 213 208 208 209 209 211 209 207 207 207 204 201 202 203 205 204 200 196 196 202 204
255 259 263 275 285 294 308 317 314 317 322 326 329 329 329 330 327 320 313 298 288 269 234 213 212 214 215 213 210 210 212 210 212 212 209 208 209 209 208 208 210 213 215 216 217 219 224 226 231
248 256 262 271 278 289 303 311 313 316 322 327 330 334 335 331 329 325 320 311 295 269 241 219 214 213 217 214 215 215 213 212 210 209 208 210 212 215 215 215 217 221 225 225 227 231 235 237 244
251 255 262 270 280 284 289 297 309 314 319 325 329 332 336 335 329 326 320 316 300 279 246 226 217 212 213 213 216 217 216 213 211 211 212 215 219 222 222 221 223 227 231 232 234 238 241 244 248
247 249 259 270 277 280 282 287 297 305 315 318 323 329 334 339 332 325 320 314 294 277 257 238 225 218 215 214 215 217 217 215 215 216 218 220 223 225 226 227 229 231 234 236 239 243 245 248 253
241 240 243 250 260 271 283 287 292 301 310 311 316 324 331 334 331 324 319 321 308 282 258 245 233 221 219 219 219 216 217 216 217 220 222 224 226 228 229 231 234 237 239 241 244 248 250 252 256
240 240 242 250 259 266 273 282 287 294 302 303 308 316 324 331 328 322 316 317 312 294 267 250 238 224 221 221 221 217 215 216 219 223 226 228 230 231 233 237 238 241 244 246 249 251 253 255 258
239 241 244 248 257 267 279 287 285 288 298 299 300 306 320 325 322 317 316 316 309 298 289 271 252 234 224 222 222 219 219 222 224 229 231 231 233 235 237 241 242 245 248 251 252 254 255 257 259
245 245 247 248 250 259 270 277 275 282 292 295 295 301 311 316 313 307 305 314 311 300 292 280 262 247 232 227 225 224 225 227 228 232 234 234 238 240 243 245 246 248 251 254 256 258 259 260 262
247 248 249 251 260 266 263 268 272 279 284 289 292 297 304 306 304 302 298 302 307 296 288 278 263 250 239 232 229 228 229 230 233 239 240 240 244 247 249 250 250 251 254 257 259 261 262 263 264